Probability
8 6 2 0 0 0 0 0 0 0 0 0 0 0 0 0 0 0 0 0 0 0 0 0 0 0 0 0 0 0 0 0 0 0 0 0 1 3 5 8 12 14 14
5 3 1 0 0 0 0 0 0 0 0 1 1 0 0 0 0 0 0 0 0 0 0 0 0 0 0 0 0 0 0 0 0 0 0 0 1 2 3 4 7 11 13
1 1 0 0 0 0 0 0 1 2 1 2 1 0 0 0 0 0 0 0 0 0 0 0 0 0 0 0 0 0 0 0 0 0 0 0 0 0 0 1 2 6 10
0 0 0 0 0 0 0 1 4 5 4 2 2 0 0 0 0 0 0 0 0 0 0 0 0 0 0 0 0 0 0 0 0 0 0 0 0 0 0 0 1 3 6
0 0 0 0 0 0 0 3 7 8 5 2 1 0 0 0 0 0 0 0 0 0 0 0 0 0 0 0 0 0 0 0 0 0 0 0 0 0 0 0 0 1 2
0 0 0 0 0 0 0 2 6 7 4 1 1 0 0 0 0 0 0 0 0 0 0 0 0 0 0 0 0 0 0 0 0 0 0 0 0 0 0 0 0 0 1
0 0 0 0 0 0 0 0 2 2 1 0 0 0 0 0 0 0 0 0 0 0 0 0 0 0 0 0 0 0 0 0 0 0 0 0 0 0 0 0 0 0 0
0 0 0 0 0 0 0 0 0 0 0 0 0 0 0 0 0 0 0 0 0 0 0 0 0 0 0 0 0 0 0 0 0 0 0 0 0 0 0 0 0 0 0
0 0 0 0 0 0 0 0 0 0 0 0 0 0 0 0 0 0 0 0 0 0 0 0 0 0 0 0 0 0 0 0 0 0 0 0 0 0 0 0 0 0 0
0 0 0 0 0 0 0 0 0 0 0 0 0 0 0 0 0 0 0 0 0 0 0 0 0 0 0 0 0 0 0 0 0 0 0 0 0 0 0 0 0 0 0
0 0 0 0 0 0 0 0 0 0 0 0 0 0 0 0 0 0 0 0 0 0 0 0 0 0 0 0 0 0 0 0 0 0 0 0 0 0 0 0 0 0 0
0 0 0 0 0 0 0 0 0 0 0 0 0 0 0 0 0 0 0 0 0 0 0 0 0 0 0 0 0 0 0 0 0 0 0 0 0 0 0 0 0 0 0
0 0 0 0 0 0 0 0 0 0 0 0 0 0 0 0 0 0 0 0 0 0 0 0 0 0 0 0 0 0 0 0 0 0 0 0 0 0 0 0 0 0 0
0 0 0 0 0 0 0 0 0 0 0 0 0 0 0 0 0 0 0 0 0 0 0 0 0 0 0 0 0 0 0 0 0 0 0 0 0 0 0 0 0 0 0
0 0 0 0 0 0 0 0 0 0 0 0 0 0 0 0 0 0 0 0 0 0 0 0 0 0 0 0 0 0 0 0 0 0 0 0 0 0 0 0 0 0 0
0 0 0 0 0 0 0 0 0 0 0 0 0 0 0 0 0 0 0 0 0 0 0 0 0 0 0 0 0 0 0 0 0 0 0 0 0 0 0 0 0 0 0
0 0 0 0 0 0 0 0 0 0 0 0 0 0 0 0 0 0 0 0 0 0 0 0 0 0 0 0 0 0 0 0 0 0 0 0 0 0 0 0 0 0 0
0 0 0 0 0 0 1 1 1 0 0 0 0 0 0 0 0 0 0 0 0 0 0 0 0 0 0 0 0 0 0 0 0 0 0 0 0 0 0 0 0 0 0
0 0 0 0 0 1 1 2 1 0 0 0 0 0 0 0 0 0 0 0 0 0 0 0 0 0 0 0 0 0 0 0 0 0 0 0 0 0 0 0 0 0 0
0 0 0 0 1 2 3 2 1 1 0 0 0 0 0 0 0 0 0 0 0 0 0 0 0 0 0 0 0 0 0 0 0 0 0 0 0 0 0 0 0 0 0
0 0 1 1 2 4 6 5 4 2 1 0 0 0 0 0 0 0 0 0 0 0 0 0 0 0 0 0 0 0 0 0 0 0 0 0 0 0 0 0 0 0 0
0 0 1 3 5 8 9 8 6 4 2 1 0 0 0 0 0 0 0 0 0 0 0 0 0 0 0 0 0 0 0 0 0 0 0 0 0 0 0 0 0 0 0
0 0 1 4 9 12 10 8 7 5 3 2 1 0 0 0 0 0 0 0 0 0 0 0 0 0 0 0 0 0 0 0 0 0 0 0 0 0 0 0 0 0 0
0 0 1 4 9 12 10 7 6 6 4 2 1 0 0 0 0 0 0 0 0 0 0 0 0 0 0 0 1 0 0 0 0 0 0 0 0 0 0 0 0 0 0
0 0 0 2 6 10 9 6 6 6 4 2 1 0 0 0 0 0 0 0 0 0 0 0 0 0 0 0 0 0 0 0 0 0 0 0 0 0 0 0 0 0 0
0 0 0 1 4 8 9 7 6 6 5 2 1 0 0 0 0 0 0 0 0 0 0 0 0 0 0 0 0 0 0 0 0 0 0 0 0 0 0 0 0 0 0
Wind_Speed
8 8 8 7 8 7 6 6 5 5 3 2 2 2 2 3 3 3 4 5 5 6 5 7 4 5 6 6 7 6 7 7 5 7 8 9 10 10 8 8 8 10 11
9 9 8 9 9 8 8 7 7 7 6 2 1 1 3 3 3 4 3 4 5 6 5 5 7 5 5 6 6 6 7 6 5 6 8 8 7 6 7 6 7 8 7
10 10 10 10 10 10 10 8 8 7 6 4 3 2 3 4 3 3 3 4 5 5 5 6 7 6 7 5 5 6 7 7 6 5 5 6 6 5 4 5 5 5 5
10 11 11 11 11 11 10 10 9 8 6 6 5 5 5 6 5 4 4 5 5 5 5 5 5 6 7 5 7 5 6 7 7 5 5 6 6 6 6 5 4 4 5
12 12 12 11 11 10 9 8 8 7 7 6 5 5 6 5 4 4 4 6 4 4 5 5 5 5 6 5 7 6 7 7 8 7 6 6 6 8 7 8 7 6 5
12 12 11 10 9 8 8 7 7 7 7 7 6 6 6 6 7 6 6 5 4 3 3 4 4 5 5 5 6 6 8 7 8 8 8 8 7 7 7 8 9 8 6
11 11 11 10 9 8 8 7 7 7 7 7 6 6 6 7 7 8 5 5 5 4 2 4 5 5 5 6 6 7 7 8 8 8 8 8 8 8 8 9 9 9 8
10 9 9 8 8 7 7 7 7 7 7 7 6 6 7 7 6 5 6 6 6 5 5 6 6 6 7 7 6 7 7 6 7 9 9 8 9 8 8 8 9 10 9
8 8 7 7 7 7 7 7 7 7 7 7 6 6 7 7 7 7 8 7 5 6 6 7 7 8 8 8 8 8 7 7 8 9 9 9 8 8 8 8 8 9 10
8 8 8 8 7 7 7 7 7 7 7 7 7 6 7 7 7 8 8 8 8 7 8 9 9 9 9 9 9 9 8 8 8 8 8 8 9 8 8 8 8 8 9
9 9 8 7 7 7 7 7 7 7 7 7 7 7 8 8 8 8 9 8 8 8 9 9 9 10 10 9 9 10 10 10 10 10 10 10 10 9 9 9 8 9 9
8 9 8 8 8 8 8 7 7 7 7 7 7 8 8 8 9 9 9 9 9 9 9 9 10 11 10 10 10 11 11 11 11 11 11 11 9 10 10 9 10 9 9
9 9 8 8 8 8 7 7 7 7 7 7 7 8 9 9 9 9 9 9 9 10 10 10 11 11 11 10 10 11 11 11 11 11 11 11 11 11 10 10 10 9 9
10 9 9 8 8 7 7 7 7 6 6 7 7 8 9 9 9 9 9 9 10 10 10 10 11 11 11 11 11 11 11 11 11 11 11 11 11 11 11 10 10 10 10
10 10 9 8 8 8 7 7 7 6 6 7 8 8 8 8 9 9 9 9 10 10 10 11 11 11 10 10 10 9 10 11 11 11 11 12 11 10 9 10 10 10 9
11 11 10 9 9 8 8 7 7 6 6 7 8 8 8 9 9 9 9 10 10 10 11 11 11 11 10 4 2 9 12 12 12 12 12 11 11 13 15 16 16 14 13
10 10 10 10 9 8 8 8 7 6 6 7 8 8 8 9 9 9 10 10 10 10 10 11 11 11 11 7 7 10 12 14 13 13 12 11 10 9 11 14 18 18 19
10 10 10 10 9 9 9 8 7 7 7 7 7 8 8 9 9 9 10 10 10 10 10 10 11 11 11 7 9 9 13 14 14 14 13 13 12 11 10 12 12 13 14
10 10 10 10 9 9 9 8 8 7 8 8 7 7 8 8 9 9 10 9 9 10 10 10 10 11 11 9 10 10 11 12 13 13 13 13 13 9 7 11 13 14 13
10 10 10 10 9 10 9 9 9 8 8 8 7 7 7 8 9 9 10 9 9 10 10 10 10 11 12 8 8 9 9 11 11 11 11 12 13 8 6 11 12 14 13
10 10 10 11 11 10 10 10 9 9 8 7 6 7 7 8 9 9 9 9 10 10 11 11 11 11 11 10 10 11 9 11 11 10 9 7 10 10 9 11 12 12 11
9 10 10 11 10 10 11 11 10 8 7 6 7 8 8 8 8 8 9 10 10 11 11 11 11 9 9 9 8 11 13 12 12 11 10 5 6 8 9 10 11 10 10
8 8 10 10 9 10 11 11 9 8 7 7 8 8 8 8 8 9 10 10 9 9 9 9 9 9 8 6 10 12 13 14 11 11 9 7 4 7 11 15 14 11 10
6 7 8 9 9 10 11 11 9 8 8 9 9 8 8 9 9 8 9 9 8 8 8 8 9 9 8 8 6 5 7 12 13 12 11 13 13 13 12 9 11 11 11
6 5 5 7 8 8 9 9 9 9 9 10 9 9 9 8 8 8 8 9 9 8 9 10 9 10 10 6 6 7 9 9 7 7 8 9 9 9 10 9 9 9 10
7 6 5 5 6 6 7 8 9 10 10 9 9 8 8 7 7 8 9 11 13 11 12 14 14 12 12 12 11 10 11 12 9 8 10 10 10 9 9 9 8 8 9
Wind_Direction
163 165 171 176 176 179 181 186 194 179 201 215 265 307 336 339 343 350 10 343 342 341 321 314 313 293 291 298 292 285 278 273 284 282 276 265 250 246 245 242 245 239 234
169 173 182 190 196 195 201 204 209 205 216 207 255 300 320 317 332 333 343 333 336 328 318 334 305 308 302 280 282 278 288 290 285 290 295 286 263 225 236 236 234 244 241
185 187 196 203 207 211 213 218 218 216 221 219 235 245 251 261 277 322 321 335 323 318 323 315 312 315 295 297 298 286 274 287 285 277 292 299 307 321 256 242 241 241 246
196 199 205 211 216 219 220 221 222 223 219 218 244 274 298 309 324 311 321 313 296 305 307 305 305 304 300 306 285 295 294 278 281 273 261 275 300 296 296 274 255 252 255
202 208 214 218 223 225 225 223 220 218 213 221 232 253 276 295 297 301 296 290 291 289 297 303 304 299 293 310 309 303 291 285 281 288 283 277 268 260 272 288 294 281 268
205 212 219 221 225 224 222 220 211 210 207 216 232 250 275 283 291 291 298 289 287 282 286 290 295 289 301 305 294 295 279 282 292 289 285 282 281 281 281 283 287 288 282
207 212 216 216 215 215 213 207 202 205 207 218 232 244 257 265 263 273 280 285 294 294 306 296 287 290 293 289 289 283 288 283 280 276 278 281 282 283 285 284 287 289 287
204 209 208 205 204 203 198 198 200 206 211 222 233 243 251 259 266 266 285 286 290 301 314 285 275 276 278 280 280 280 272 272 277 276 278 281 274 277 276 279 286 287 284
199 198 192 191 190 191 192 197 200 211 219 231 234 242 249 262 277 276 261 268 275 281 280 279 276 274 273 274 274 272 278 275 271 273 265 263 274 270 270 272 274 281 286
191 187 185 185 186 187 189 199 209 221 231 237 243 248 251 256 259 267 276 279 280 278 277 276 276 275 273 268 266 270 262 264 265 268 278 280 276 279 275 270 268 267 273
187 181 181 181 185 190 194 204 214 226 237 247 249 259 263 265 263 261 264 266 272 276 272 273 276 276 275 272 268 269 274 266 266 267 265 263 272 277 279 272 268 266 266
184 180 179 182 193 202 207 212 223 233 242 251 255 257 262 266 268 268 267 267 268 270 273 275 276 276 275 274 271 269 270 268 266 265 266 266 264 261 266 272 272 270 272
185 184 186 194 203 210 218 226 232 243 250 252 256 262 266 269 270 274 275 273 271 272 276 277 277 278 279 277 273 270 269 267 266 265 265 264 265 265 266 268 269 269 264
191 196 197 204 211 214 219 230 242 251 257 262 266 269 273 278 279 278 277 275 274 275 277 279 281 280 279 276 273 269 267 266 266 264 263 263 261 260 262 263 261 266 270
200 205 209 208 210 213 217 226 237 245 255 263 271 275 277 279 279 278 277 278 277 277 279 281 280 278 276 270 274 277 273 270 269 265 261 258 258 270 272 275 275 270 263
213 213 215 216 215 215 218 222 229 238 244 258 271 279 282 282 281 280 279 279 278 280 282 279 279 278 276 296 299 278 281 277 271 268 266 263 247 239 235 248 261 271 273
222 220 220 220 218 215 214 218 224 233 243 254 267 276 279 282 284 285 285 283 284 283 280 278 277 277 276 261 242 249 270 272 270 269 267 265 265 247 248 234 231 242 246
230 225 225 221 216 211 206 211 217 225 241 254 267 276 280 282 284 284 283 285 285 284 281 279 279 278 275 251 238 243 259 264 264 264 263 263 267 263 262 263 255 249 240
233 231 230 227 214 209 203 203 217 228 241 253 264 274 281 285 286 284 286 288 287 283 280 277 277 276 276 256 235 239 268 263 263 263 262 261 262 255 236 257 263 263 259
233 229 226 223 208 203 198 205 220 229 240 253 263 273 277 281 283 285 286 286 284 280 281 281 279 278 278 266 228 226 262 266 267 264 261 248 243 253 222 249 256 257 257
234 229 225 220 210 197 193 208 222 231 241 252 259 263 269 274 276 279 279 280 280 282 282 283 280 276 271 266 236 223 252 267 272 273 272 267 196 211 221 242 256 261 272
244 231 223 224 211 196 195 209 220 227 235 245 253 260 265 273 278 276 276 276 278 277 275 276 278 274 265 253 244 219 230 259 274 274 274 280 159 197 221 235 249 254 260
262 248 234 230 215 202 202 213 216 214 220 232 245 254 261 265 269 271 273 271 266 268 277 281 284 284 282 262 224 224 228 232 248 266 282 296 257 243 239 236 237 238 238
289 267 251 242 225 209 208 213 209 205 214 227 237 245 254 259 259 262 266 269 271 272 276 278 281 285 285 282 277 254 233 224 234 249 252 234 237 243 258 249 219 226 234
331 302 268 254 244 223 215 211 204 202 217 231 237 245 252 258 268 265 264 269 272 281 285 289 288 287 287 308 360 319 299 300 313 306 276 264 250 237 235 238 235 229 224
356 339 311 286 268 242 225 215 210 206 215 230 237 243 247 251 258 267 267 235 234 247 243 248 261 278 277 287 290 280 270 269 271 271 262 261 258 253 249 245 238 230 228